Weather History for KFMY - February, 2012

Change the Weather History Date:

Thursday, February 16, 2012

  Actual Average Record
Temperature  
Mean Temperature 72 °F 67 °F  
Max Temperature 83 °F 77 °F 88 °F (1949)
Min Temperature 60 °F 56 °F 33 °F (1943)
Degree Days  
Heating Degree Days 0 2  
Month to date heating degree days 23 38  
Since 1 July heating degree days 126 239  
Cooling Degree Days 7 4  
Month to date cooling degree days 98 54  
Year to date cooling degree days 189 137  
Growing Degree Days 22 (Base 50)    
Moisture  
Dew Point 61 °F    
Average Humidity 75    
Maximum Humidity 93    
Minimum Humidity 47    
Precipitation  
Precipitation 0.00 in 0.08 in 1.19 in (1978)
Month to date precipitation 0.27 1.17  
Year to date precipitation 0.42 3.11  
Sea Level Pressure  
Sea Level Pressure 30.15 in    
Wind  
Wind Speed 5 mph (SSW)    
Max Wind Speed 15 mph    
Max Gust Speed 21 mph    
Visibility 10 miles    
Events      
T = Trace of Precipitation, MM = Missing Value Source: NWS Daily Summary

Daily Weather History Graph

Daily Weather History Graph

Search for Another Location

Airport or City:

Trip Planner

Search our weather history database for the weather conditions in past years. The results will help you decide how hot, cold, wet, or windy it might be!

Date:

Astronomy

Feb. 16, 2012 Rise Set
Actual Time 7:03 AM EST 6:20 PM EST
Civil Twilight 6:39 AM EST 6:44 PM EST
Nautical Twilight 6:12 AM EST 7:11 PM EST
Astronomical Twilight 5:45 AM EST 7:38 PM EST
Moon 2:39 AM EST (2/16) 1:28 PM EST (2/16)
Length of Visible Light 12h 04m
Length of Day
11h 17m
Waning Crescent, 28% of the Moon is Illuminated
Feb 16
Waning Crescent
Feb 21
New
Feb 29
First Quarter
Mar 8
Full
Mar 14
Last Quarter

Hourly Weather History & Observations

Time (EST) Temp. Heat Index Dew Point Humidity Pressure Visibility Wind Dir Wind Speed Gust Speed Precip Events Conditions
12:53 AM 64.0 °F - 60.1 °F 87% 30.18 in 10.0 mi Calm Calm - N/A   Clear
1:53 AM 63.0 °F - 59.0 °F 87% 30.18 in 10.0 mi Calm Calm - N/A   Clear
2:53 AM 62.1 °F - 57.9 °F 86% 30.16 in 10.0 mi Calm Calm - N/A   Clear
3:53 AM 61.0 °F - 57.9 °F 90% 30.16 in 10.0 mi Calm Calm - N/A   Clear
4:53 AM 61.0 °F - 57.9 °F 90% 30.16 in 10.0 mi Calm Calm - N/A   Partly Cloudy
5:53 AM 61.0 °F - 57.9 °F 90% 30.17 in 10.0 mi Calm Calm - N/A   Clear
6:53 AM 61.0 °F - 57.9 °F 90% 30.18 in 10.0 mi Calm Calm - N/A   Partly Cloudy
7:53 AM 63.0 °F - 60.1 °F 90% 30.19 in 9.0 mi Calm Calm - N/A   Clear
8:53 AM 69.1 °F - 63.0 °F 81% 30.19 in 10.0 mi SE 5.8 mph - N/A   Clear
9:53 AM 75.9 °F - 63.0 °F 64% 30.19 in 10.0 mi SSE 11.5 mph 19.6 mph N/A   Clear
10:53 AM 78.1 °F - 61.0 °F 56% 30.18 in 10.0 mi SSE 13.8 mph 20.7 mph N/A   Clear
11:53 AM 80.1 °F 81.1 °F 61.0 °F 52% 30.18 in 10.0 mi SSE 9.2 mph - N/A   Scattered Clouds
12:53 PM 81.0 °F 81.9 °F 62.1 °F 52% 30.15 in 10.0 mi SW 10.4 mph - N/A   Clear
1:53 PM 82.0 °F 82.7 °F 61.0 °F 49% 30.12 in 10.0 mi SW 11.5 mph - N/A   Clear
2:53 PM 79.0 °F - 57.9 °F 48% 30.11 in 10.0 mi SW 10.4 mph - N/A   Clear
4:53 PM 79.0 °F - 60.1 °F 52% 30.10 in 10.0 mi SW 6.9 mph - N/A   Clear
6:53 PM 73.0 °F - 63.0 °F 71% 30.11 in 10.0 mi SW 3.5 mph - N/A   Clear
7:53 PM 72.0 °F - 64.0 °F 76% 30.11 in 10.0 mi Calm Calm - N/A   Clear
8:53 PM 70.0 °F - 64.0 °F 81% 30.11 in 10.0 mi Calm Calm - N/A   Clear
9:53 PM 69.1 °F - 64.0 °F 84% 30.11 in 10.0 mi SSW 3.5 mph - N/A   Clear
10:53 PM 69.1 °F - 64.0 °F 84% 30.10 in 10.0 mi South 3.5 mph - N/A   Clear
11:53 PM 66.9 °F - 63.0 °F 87% 30.09 in 10.0 mi Calm Calm - N/A   Clear